User: anonymous   Login
Location: Newark
(48.2308°N, 120.8549°W)
Time: 02:47:16
(UTC+00:00)
Language:

Hubble Space Telescope - Orbit

View from above orbital plane
View from above orbital plane
View from above satellite
View from above satellite

Ground track
Ground track

The orbit data is extracted from the following two-line orbital elements,

1 20580U 90037B   21165.48844003  .00000489  00000-0  18579-4 0  9995
2 20580  28.4702  84.6965 0002740  35.2626 127.6538 15.09658424510591
Epoch (UTC): 14 June 2021 11:43:21
Eccentricity: 0.0002740
inclination: 28.4702°
perigee height: 535 km
apogee height: 539 km
right ascension of ascending node: 84.6965°
argument of perigee: 35.2626°
revolutions per day: 15.09658424
mean anomaly at epoch: 127.6538°
orbit number at epoch: 51059

The dashed part of the orbit path shows where the satellite is in the earth's shadow,  

DLR